TimeCST,TemperatureF,Dew PointF,Humidity,Sea Level PressureIn,VisibilityMPH,Wind Direction,Wind SpeedMPH,Gust SpeedMPH,PrecipitationIn,Events,Conditions,WindDirDegrees,DateUTC
12:54 AM,55.9,44.1,64,29.82,10.0,NNW,12.7,-,N/A,,Scattered Clouds,340,2012-03-03 06:54:00
1:54 AM,54.0,42.1,64,29.83,10.0,North,9.2,-,0.00,,Overcast,350,2012-03-03 07:54:00
2:54 AM,52.0,42.1,69,29.81,9.0,North,15.0,18.4,0.00,Rain,Light Rain,350,2012-03-03 08:54:00
3:54 AM,52.0,43.0,71,29.83,9.0,NNE,8.1,-,0.00,,Overcast,20,2012-03-03 09:54:00
4:54 AM,52.0,41.0,66,29.86,10.0,North,11.5,-,0.00,,Overcast,360,2012-03-03 10:54:00
5:54 AM,50.0,37.4,62,29.90,10.0,North,13.8,24.2,N/A,,Overcast,360,2012-03-03 11:54:00
6:54 AM,48.0,36.0,63,29.91,10.0,North,17.3,23.0,N/A,,Mostly Cloudy,10,2012-03-03 12:54:00
7:54 AM,46.9,34.0,61,29.96,10.0,NNE,13.8,-,N/A,,Overcast,20,2012-03-03 13:54:00
8:54 AM,48.9,36.0,61,29.96,10.0,North,17.3,-,N/A,,Mostly Cloudy,360,2012-03-03 14:54:00
9:54 AM,50.0,32.0,50,29.96,10.0,North,16.1,24.2,N/A,,Scattered Clouds,10,2012-03-03 15:54:00
10:54 AM,52.0,30.0,43,29.94,10.0,NNE,17.3,25.3,N/A,,Scattered Clouds,20,2012-03-03 16:54:00
11:54 AM,55.0,30.9,40,29.95,10.0,North,12.7,-,N/A,,Mostly Cloudy,360,2012-03-03 17:54:00
12:54 PM,55.9,28.0,34,29.94,10.0,North,16.1,24.2,N/A,,Overcast,10,2012-03-03 18:54:00
1:54 PM,55.9,27.0,33,29.91,10.0,North,11.5,-,N/A,,Overcast,10,2012-03-03 19:54:00
2:54 PM,57.0,25.0,29,29.90,10.0,North,12.7,-,N/A,,Mostly Cloudy,10,2012-03-03 20:54:00
3:54 PM,54.0,28.0,37,29.92,10.0,North,12.7,-,N/A,,Overcast,350,2012-03-03 21:54:00
4:54 PM,55.0,30.0,38,29.94,10.0,North,12.7,-,N/A,,Scattered Clouds,360,2012-03-03 22:54:00
5:54 PM,51.1,33.1,50,29.95,10.0,NNW,8.1,-,N/A,,Partly Cloudy,340,2012-03-03 23:54:00
6:54 PM,50.0,30.9,48,29.97,10.0,NNW,5.8,-,N/A,,Partly Cloudy,330,2012-03-04 00:54:00
7:54 PM,44.1,35.1,71,30.00,10.0,Calm,Calm,-,N/A,,Partly Cloudy,0,2012-03-04 01:54:00
8:54 PM,42.1,35.1,76,30.02,10.0,Calm,Calm,-,N/A,,Partly Cloudy,0,2012-03-04 02:54:00
9:54 PM,39.9,35.1,83,30.03,10.0,Calm,Calm,-,N/A,,Clear,0,2012-03-04 03:54:00
10:54 PM,39.9,34.0,79,30.05,10.0,Calm,Calm,-,N/A,,Clear,0,2012-03-04 04:54:00
11:54 PM,37.9,35.1,89,30.06,10.0,Calm,Calm,-,N/A,,Partly Cloudy,0,2012-03-04 05:54:00